Weather History for Tuscaloosa, AL

Change the Weather History Date:

Thursday, September 27, 2012

  Actual Average Record
Temperature  
Mean Temperature 76 °F 71 °F  
Max Temperature 88 °F 83 °F 97 °F (1954)
Min Temperature 63 °F 59 °F 43 °F (2001)
Degree Days  
Heating Degree Days 0 1  
Month to date heating degree days 1 2  
Since 1 July heating degree days 1 2  
Cooling Degree Days 10    
Growing Degree Days 26 (Base 50)    
Moisture  
Dew Point 66 °F    
Average Humidity 73    
Maximum Humidity 97    
Minimum Humidity 48    
Precipitation  
Precipitation 0.00 in 0.12 in 2.05 in (1957)
Month to date precipitation 5.86 3.15  
Year to date precipitation 35.55 39.02  
Sea Level Pressure  
Sea Level Pressure 30.12 in    
Wind  
Wind Speed 1 mph (SSW)    
Max Wind Speed 8 mph    
Max Gust Speed 12 mph    
Visibility 8 miles    
Events      
T = Trace of Precipitation, MM = Missing Value Source: NWS Daily Summary

Daily Weather History Graph

Daily Weather History Graph

Search for Another Location

Airport:

Trip Planner

Search our weather history database for the weather conditions in past years. The results will help you decide how hot, cold, wet, or windy it might be!

Date:

Astronomy

Sep. 27, 2012 Rise Set
Actual Time 6:42 AM CDT 6:39 PM CDT
Civil Twilight 6:17 AM CDT 7:04 PM CDT
Nautical Twilight 5:48 AM CDT 7:33 PM CDT
Astronomical Twilight 5:19 AM CDT 8:01 PM CDT
Moon 5:07 PM CDT (9/27) 4:16 AM CDT (9/27)
Length of Visible Light 12h 46m
Length of Day
11h 57m
Waxing Gibbous, 94% of the Moon is Illuminated
Sep 27
Waxing Gibbous
Sep 29
Full
Oct 8
Last Quarter
Oct 15
New
Oct 21
First Quarter

Hourly Weather History & Observations

Time (CDT) Temp. Heat Index Dew Point Humidity Pressure Visibility Wind Dir Wind Speed Gust Speed Precip Events Conditions
12:53 AM 66.9 °F - 64.9 °F 93% 30.12 in 8.0 mi Calm Calm - N/A   Clear
1:53 AM 66.2 °F - 64.4 °F 94% 30.13 in 8.0 mi Calm Calm - N/A   Clear
2:53 AM 66.0 °F - 64.0 °F 93% 30.12 in 8.0 mi Calm Calm - N/A   Overcast
3:53 AM 66.9 °F - 64.9 °F 93% 30.13 in 9.0 mi Calm Calm - N/A   Mostly Cloudy
4:53 AM 64.0 °F - 63.0 °F 96% 30.13 in 7.0 mi Calm Calm - N/A   Clear
5:53 AM 64.0 °F - 63.0 °F 96% 30.15 in 6.0 mi Calm Calm - N/A   Clear
6:53 AM 64.0 °F - 62.1 °F 93% 30.17 in 6.0 mi Calm Calm - N/A   Clear
7:53 AM 68.0 °F - 64.9 °F 90% 30.19 in 7.0 mi Calm Calm - N/A   Partly Cloudy
8:53 AM 73.9 °F - 68.0 °F 82% 30.18 in 8.0 mi Calm Calm - N/A   Clear
9:53 AM 79.0 °F - 70.0 °F 74% 30.18 in 9.0 mi South 3.5 mph - N/A   Clear
10:53 AM 82.0 °F 85.5 °F 69.1 °F 65% 30.18 in 10.0 mi Variable 3.5 mph - N/A   Clear
11:53 AM 84.0 °F 87.0 °F 68.0 °F 58% 30.16 in 10.0 mi Variable 3.5 mph - N/A   Clear
12:53 PM 84.0 °F 86.3 °F 66.0 °F 55% 30.14 in 10.0 mi Calm Calm - N/A   Partly Cloudy
1:53 PM 86.0 °F 88.8 °F 66.9 °F 53% 30.11 in 10.0 mi Calm Calm - N/A   Clear
2:53 PM 84.9 °F 86.6 °F 64.9 °F 51% 30.09 in 10.0 mi Calm Calm - N/A   Clear
3:53 PM 86.0 °F 87.6 °F 64.9 °F 49% 30.08 in 10.0 mi Calm Calm - N/A   Clear
4:53 PM 87.1 °F 89.2 °F 66.0 °F 49% 30.06 in 10.0 mi WSW 4.6 mph - N/A   Partly Cloudy
5:53 PM 84.9 °F 87.1 °F 66.0 °F 53% 30.06 in 10.0 mi SSW 4.6 mph - N/A   Partly Cloudy
6:53 PM 80.1 °F 82.3 °F 66.9 °F 64% 30.06 in 10.0 mi South 3.5 mph - N/A   Clear
7:53 PM 75.0 °F - 68.0 °F 79% 30.09 in 10.0 mi Calm Calm - N/A   Clear
8:53 PM 72.0 °F - 68.0 °F 87% 30.10 in 10.0 mi Calm Calm - N/A   Clear
9:53 PM 70.0 °F - 68.0 °F 93% 30.10 in 9.0 mi Calm Calm - N/A   Clear
10:53 PM 68.0 °F - 66.0 °F 93% 30.11 in 8.0 mi Calm Calm - N/A   Clear
11:53 PM 68.0 °F - 66.0 °F 93% 30.10 in 4.0 mi Calm Calm - N/A   Clear
11:55 PM 66.2 °F - 66.2 °F 100% 30.11 in 1.8 mi Calm Calm - N/A   Clear